Regional Weather Roundup
Issued by NWS Sioux Falls, SD

Home | Current Version | Previous Version | Text Only | Print | Product List | Glossary Off
Versions: 1 2 3 4 5 6 7 8 9 10 11 12 13 14 15 16 17 18 19 20 21 22 23 24 25 26 27 28 29 30 31 32 33 34 35 36 37 38 39 40 41 42 43 44 45 46 47 48 49 50

000
ASUS43 KFSD 190010
RWRFSD

WEATHER ROUNDUP FOR SE SOUTH DAKOTA/SW MINNESOTA/NW IOWA
NATIONAL WEATHER SERVICE SIOUX FALLS SD
700 PM CDT THU SEP 18 2014

NOTE: "FAIR" INDICATES FEW OR NO CLOUDS BELOW 12,000 FEET WITH NO
SIGNIFICANT WEATHER AND OR OBSTRUCTIONS TO VISIBILITY.


SDZ038>040-050-052>070-190100-
SOUTHEAST SOUTH DAKOTA

CITY           SKY/WX    TMP DP  RH WIND       PRES   REMARKS
CHAMBERLAIN    PTCLDY    74  60  60 SE12      29.80F
6HR MIN TEMP:  73; 6HR MAX TEMP:  76;

HURON          PTCLDY    72  56  57 S10G20    29.84R
6HR MIN TEMP:  72; 6HR MAX TEMP:  77;

MADISON        FAIR      68  55  64 S9        29.91S
MITCHELL       CLEAR     72  58  61 SE14      29.85F
6HR MIN TEMP:  72; 6HR MAX TEMP:  78; 6HR PCP: TRACE;

SIOUX FALLS    PTCLDY    71  55  56 S10G22    29.91F
6HR MIN TEMP:  71; 6HR MAX TEMP:  77;

WINNER         FAIR      80  61  52 S15       29.79F
YANKTON        CLEAR     72  59  64 SE10      29.89F
$$

MNZ071-072-080-081-089-090-097-098-190100-
SOUTHWEST MINNESOTA

CITY           SKY/WX    TMP DP  RH WIND       PRES   REMARKS
FAIRMONT       CLEAR     68  43  40 S9        29.99R
JACKSON        PTCLDY    70  48  46 S7        29.99R
LUVERNE        CLEAR     72  54  53 S7        29.94F
MARSHALL       PTCLDY    72  54  53 S9        29.92F
6HR MIN TEMP:  72; 6HR MAX TEMP:  77;

MONTEVIDEO     PTCLDY    72  55  56 S7        29.92S
PIPESTONE      CLEAR     70  54  56 S9        29.93F
REDWOOD FALLS  PTCLDY    70  53  54 SE10      29.94S
TRACY          CLEAR     69  55  59 CALM      29.94F
WINDOM         CLEAR     70  48  46 S6        29.97S
WORTHINGTON    CLEAR     66  48  52 S8        29.98R
$$

IAZ001>003-012>014-020>022-031-032-NEZ013-014-SDZ071-190100-
NORTHWEST IOWA

CITY           SKY/WX    TMP DP  RH WIND       PRES   REMARKS
CHEROKEE       CLEAR     68  56  64 SE6       29.97R
DENISON        CLEAR     68  55  64 SE8       29.96S
ESTHERVILLE    CLEAR     67  48  50 SE10      29.99R
LE MARS        CLEAR     70  57  64 SE6       29.95S
ORANGE CITY    CLEAR     72  55  56 SE6       29.96S
SHELDON        CLEAR     68  55  64 SE7       29.95S
SIOUX CITY     CLEAR     73  57  57 SE8       29.94S
6HR MIN TEMP:  72; 6HR MAX TEMP:  78;

SPENCER        CLEAR     67  52  58 S8        29.98R
6HR MIN TEMP:  67; 6HR MAX TEMP:  74;

STORM LAKE     CLEAR     66  59  77 SE8       29.99S
$$

ABBREVIATIONS USED IN REMARKS
   TC - TEMPERATURE IN CELSIUS
  WCI - WIND CHILL INDEX
   HX - HEAT INDEX
  VSB - VISIBILITY




USA.gov is the U.S. government's official web portal to all federal, state and local government web resources and services.